Regional Weather Roundup
Issued by NWS Goodland, KS

Home | Current Version | Previous Version | Graphics & Text | Print | Product List | Glossary On
Versions: 1 2 3 4 5 6 7 8 9 10 11 12 13 14 15 16 17 18 19 20 21 22 23 24 25 26 27 28 29 30 31 32 33 34 35 36 37 38 39 40 41 42 43 44 45 46 47 48 49 50
794
ASUS43 KGLD 271359
RWRGLD

GOODLAND FORECAST AREA HOURLY WEATHER ROUNDUP
NATIONAL WEATHER SERVICE GOODLAND KS
700 AM MST MON FEB 27 2017

...OFFICIAL OBSERVATIONS...

CITY           SKY/WX    TMP DP  RH WIND       PRES   REMARKS
GOODLAND KS    CLOUDY    19  16  88 N5        29.77S
HILL CITY KS   CLOUDY    22  19  89 E3        29.87F
IMPERIAL NEB   CLOUDY    18  13  80 SE8       29.78F
MCCOOK NEB     CLOUDY    16  11  80 CALM      29.86S
AKRON CO       CLOUDY    21  10  62 SW10      29.70F WCI  10
BURLINGTON CO  CLOUDY    20  15  81 W10       29.74F WCI   9
LIMON CO       CLOUDY     5   3  91 CALM      29.73S
$$

...UNOFFICIAL OBSERVATIONS...

CITY           SKY/WX    TMP DP  RH WIND       PRES   REMARKS
LENORA KS        N/A     24  32 100 CALM        N/A
SHARON SPRINGS   N/A     21  18  87 CALM        N/A
TRENTON NEB      N/A     19  32 100 CALM        N/A
KIT CARSON CO    N/A     11   5  76 CALM        N/A
YUMA CO        FAIR      18  10  73 S10       29.73F WCI   6
$$




USA.gov is the U.S. government's official web portal to all federal, state and local government web resources and services.